M I D A S
Marine Information and Data Acquisition System
Tripno 1897 of the Zeeleeuw from 2010-06-09 06:11:34 to 2010-06-09 17:16:18
Back to CruiseResearch ActivitiesStationsMapUnderway DataData graphs

EquipmentUnitsComment
TimeDGPSUTC
LatitudeDGPSDM.mWGS84
LongitudeDGPSDM.mWGS84
HeadingGyrodeg 
SOGDGPSknotsSpeed over ground
COGDGPSdegCourse over ground
DepthEcho soundermeters200 kHz
Missing or incorrect values are displayed as -999
Navigation data collected by the RV Zeeleeuw from 2010-06-09 06:11:27 to 2010-06-09 17:31:48
                                                                                    Next 1000 lines
Time Latitude Longitude Heading SOG COG Depth
2010-06-09 06:11:37 51°13.663 2°55.957 132.2 0.1 276 5.9
2010-06-09 06:11:42 51°13.663 2°55.957 132.5 -999 266 5.9
2010-06-09 06:11:47 51°13.663 2°55.957 132.7 0.1 255 5.9
2010-06-09 06:11:52 51°13.663 2°55.957 132.7 0.1 129 5.9
2010-06-09 06:11:57 51°13.663 2°55.957 132.2 0.1 129 5.9
2010-06-09 06:12:02 51°13.663 2°55.958 131.5 0.1 109 5.9
2010-06-09 06:12:07 51°13.663 2°55.958 130.6 0.1 93 5.9
2010-06-09 06:12:12 51°13.662 2°55.958 129.5 0.1 90 5.9
2010-06-09 06:12:17 51°13.662 2°55.959 128 0.1 88 5.9
2010-06-09 06:12:22 51°13.662 2°55.959 127.1 0.1 61 5.8
2010-06-09 06:12:27 51°13.662 2°55.959 126 0.1 80 5.8
2010-06-09 06:12:32 51°13.662 2°55.959 125 -999 88 5.8
2010-06-09 06:12:37 51°13.662 2°55.959 124.3 -999 307 5.8
2010-06-09 06:12:42 51°13.662 2°55.959 123.9 -999 29 5.8
2010-06-09 06:12:47 51°13.662 2°55.959 123.5 -999 325 5.8
2010-06-09 06:12:52 51°13.662 2°55.959 123.4 -999 273 5.9
2010-06-09 06:12:57 51°13.662 2°55.959 123.1 -999 125 5.8
2010-06-09 06:13:02 51°13.662 2°55.959 122.7 0.1 120 5.8
2010-06-09 06:13:06 51°13.662 2°55.959 122.1 0.1 64 5.8
2010-06-09 06:13:12 51°13.662 2°55.959 121.1 0.1 208 5.8
2010-06-09 06:13:17 51°13.662 2°55.96 119.7 0.1 358 5.9
2010-06-09 06:13:22 51°13.662 2°55.959 119.1 0.1 247 5.8
2010-06-09 06:13:27 51°13.662 2°55.959 118.6 0.1 236 5.8
2010-06-09 06:13:32 51°13.662 2°55.959 117.8 -999 223 5.8
2010-06-09 06:13:37 51°13.662 2°55.96 117.2 0.1 170 5.9
2010-06-09 06:13:42 51°13.662 2°55.96 116.5 0.1 199 5.8
2010-06-09 06:13:47 51°13.662 2°55.96 115.8 0.1 197 5.9
2010-06-09 06:13:52 51°13.662 2°55.959 115.3 -999 219 5.9
2010-06-09 06:13:57 51°13.662 2°55.96 114.6 0.1 168 5.9
2010-06-09 06:14:02 51°13.661 2°55.96 113.9 0.1 177 5.9
2010-06-09 06:14:07 51°13.661 2°55.959 113.3 0.1 205 5.9
2010-06-09 06:14:12 51°13.661 2°55.959 112.6 0.1 253 5.9
2010-06-09 06:14:17 51°13.661 2°55.959 111.9 -999 238 5.9
2010-06-09 06:14:22 51°13.661 2°55.959 111.2 -999 201 5.9
2010-06-09 06:14:26 51°13.661 2°55.959 110.6 0.1 188 5.9
2010-06-09 06:14:32 51°13.661 2°55.959 110 -999 311 5.9
2010-06-09 06:14:37 51°13.661 2°55.959 109.5 -999 174 5.9
2010-06-09 06:14:42 51°13.661 2°55.959 109.2 0.1 318 5.9
2010-06-09 06:14:47 51°13.661 2°55.959 109.1 0.6 298 5.9
2010-06-09 06:14:52 51°13.662 2°55.956 109.3 1.2 295 6
2010-06-09 06:14:57 51°13.663 2°55.953 109.5 1.9 292 6
2010-06-09 06:15:02 51°13.664 2°55.947 109.5 2.5 293 6.1
2010-06-09 06:15:08 51°13.666 2°55.94 109.2 3.2 291 -999
2010-06-09 06:15:13 51°13.668 2°55.932 108.9 3.6 292 -999
2010-06-09 06:15:19 51°13.67 2°55.923 108.9 3.8 291 -999
2010-06-09 06:15:25 51°13.673 2°55.914 108.6 3.9 291 -999
2010-06-09 06:15:30 51°13.674 2°55.905 107.5 4.1 289 -999
2010-06-09 06:15:36 51°13.676 2°55.895 105.6 4.2 286 -999
2010-06-09 06:15:41 51°13.678 2°55.885 103.2 4.5 285 -999
2010-06-09 06:15:46 51°13.679 2°55.875 101.5 4.5 284 -999
2010-06-09 06:15:51 51°13.68 2°55.866 100.4 4.3 282 8.2
2010-06-09 06:15:56 51°13.682 2°55.857 99.5 4.2 282 -999
2010-06-09 06:16:01 51°13.683 2°55.848 98.3 4.1 282 -999
2010-06-09 06:16:06 51°13.684 2°55.839 97.1 4 281 -999
2010-06-09 06:16:10 51°13.685 2°55.833 95.9 3.9 280 8.9
2010-06-09 06:16:15 51°13.686 2°55.824 95 3.8 279 9.8
2010-06-09 06:16:20 51°13.686 2°55.816 93.6 3.6 278 10.3
2010-06-09 06:16:25 51°13.687 2°55.809 91.5 3.5 276 10.1
2010-06-09 06:16:30 51°13.687 2°55.801 89.3 3.3 275 11.6
2010-06-09 06:16:35 51°13.687 2°55.794 86.9 3.2 273 11.9
2010-06-09 06:16:40 51°13.688 2°55.788 84.7 2.8 272 11.8
2010-06-09 06:16:45 51°13.688 2°55.783 82.3 2.2 270 12.2
2010-06-09 06:16:49 51°13.688 2°55.78 79.8 1.9 271 12.5
2010-06-09 06:16:54 51°13.688 2°55.777 76.3 1.5 272 12.7
2010-06-09 06:16:59 51°13.688 2°55.774 73.4 1.1 273 12.8
2010-06-09 06:17:04 51°13.688 2°55.773 70.3 0.8 283 12.9
2010-06-09 06:17:09 51°13.689 2°55.771 67.1 0.7 292 13
2010-06-09 06:17:14 51°13.689 2°55.77 64.2 0.6 306 13
2010-06-09 06:17:18 51°13.69 2°55.77 61.5 0.5 322 13.1
2010-06-09 06:17:23 51°13.69 2°55.769 58.3 0.5 343 12.9
2010-06-09 06:17:28 51°13.691 2°55.769 55.2 0.6 346 12.8
2010-06-09 06:17:33 51°13.692 2°55.769 51.6 0.5 342 12.7
2010-06-09 06:17:38 51°13.692 2°55.768 49 0.5 328 12.8
2010-06-09 06:17:42 51°13.692 2°55.767 46.7 0.5 301 12.9
2010-06-09 06:17:47 51°13.693 2°55.766 44.5 0.5 278 13
2010-06-09 06:17:52 51°13.693 2°55.765 42.3 0.7 268 13.2
2010-06-09 06:17:57 51°13.692 2°55.763 40.3 0.8 255 13.2
2010-06-09 06:18:02 51°13.692 2°55.761 38.5 0.9 250 13
2010-06-09 06:18:07 51°13.691 2°55.759 36.6 1 239 12.8
2010-06-09 06:18:12 51°13.69 2°55.757 34.9 1.2 233 12.5
2010-06-09 06:18:17 51°13.689 2°55.755 33 1.1 232 12
2010-06-09 06:18:22 51°13.688 2°55.754 31.5 1.1 231 11.7
2010-06-09 06:18:27 51°13.687 2°55.752 30.5 1 233 4.8
2010-06-09 06:18:32 51°13.686 2°55.751 29.4 0.6 238 5.2
2010-06-09 06:18:37 51°13.686 2°55.749 27.6 0.5 261 11.6
2010-06-09 06:18:43 51°13.686 2°55.749 24.8 0.3 284 -999
2010-06-09 06:18:48 51°13.687 2°55.748 21.3 0.5 314 -999
2010-06-09 06:18:54 51°13.687 2°55.747 18.2 0.5 331 -999
2010-06-09 06:18:59 51°13.688 2°55.747 15.1 0.8 342 11.9
2010-06-09 06:19:04 51°13.69 2°55.746 12.3 1 349 12.2
2010-06-09 06:19:08 51°13.691 2°55.746 8 1.3 347 12.5
2010-06-09 06:19:13 51°13.693 2°55.745 3.1 1.5 345 12.6
2010-06-09 06:19:18 51°13.695 2°55.744 357.9 1.7 342 12.8
2010-06-09 06:19:23 51°13.698 2°55.743 352.5 1.9 341 13.1
2010-06-09 06:19:28 51°13.701 2°55.741 346.8 2.3 336 12.7
2010-06-09 06:19:33 51°13.704 2°55.739 342.8 2.6 335 12.9
2010-06-09 06:19:37 51°13.707 2°55.736 338.3 3 333 12.3
2010-06-09 06:19:42 51°13.711 2°55.733 336 3.3 333 12.3
2010-06-09 06:19:47 51°13.716 2°55.729 334.6 3.9 332 12.5
2010-06-09 06:19:52 51°13.721 2°55.724 334 4.4 332 12.4
2010-06-09 06:19:57 51°13.726 2°55.719 333.9 4.8 331 12.4
2010-06-09 06:20:02 51°13.732 2°55.714 333.9 5.1 332 12.2
2010-06-09 06:20:06 51°13.737 2°55.709 334.1 5.5 332 12
2010-06-09 06:20:12 51°13.746 2°55.703 334.5 5.9 333 11.7
2010-06-09 06:20:17 51°13.754 2°55.696 334.7 6.2 333 11.5
2010-06-09 06:20:22 51°13.761 2°55.69 334.8 6.4 333 11.5
2010-06-09 06:20:27 51°13.77 2°55.683 334.7 6.6 332 11.6
2010-06-09 06:20:32 51°13.778 2°55.676 334.7 6.9 333 11.6
2010-06-09 06:20:37 51°13.787 2°55.669 335.3 7.2 333 11.7
2010-06-09 06:20:42 51°13.796 2°55.661 335.4 7.3 332 11.5
2010-06-09 06:20:47 51°13.805 2°55.654 335.4 7.5 333 11.5
2010-06-09 06:20:52 51°13.815 2°55.646 335.7 7.7 334 11.6
2010-06-09 06:20:57 51°13.825 2°55.639 336.2 7.8 334 11.6
2010-06-09 06:21:02 51°13.835 2°55.631 336.2 8 334 11.4
2010-06-09 06:21:07 51°13.845 2°55.623 336.2 8.2 334 11.4
2010-06-09 06:21:12 51°13.855 2°55.615 336.4 8.3 334 11.3
2010-06-09 06:21:17 51°13.866 2°55.607 336.5 8.4 333 11
2010-06-09 06:21:22 51°13.876 2°55.599 336.4 8.6 335 10.6
2010-06-09 06:21:27 51°13.887 2°55.591 337.2 8.6 335 10.6
2010-06-09 06:21:32 51°13.898 2°55.583 337.7 8.7 336 11.1
2010-06-09 06:21:37 51°13.909 2°55.575 337.3 8.8 335 11
2010-06-09 06:21:42 51°13.92 2°55.567 337.1 8.8 336 11
2010-06-09 06:21:47 51°13.932 2°55.559 337.3 8.9 336 11.1
2010-06-09 06:21:52 51°13.943 2°55.551 337.2 8.9 336 11
2010-06-09 06:21:57 51°13.954 2°55.543 337.1 9 336 11
2010-06-09 06:22:02 51°13.966 2°55.535 337.1 9 336 11
2010-06-09 06:22:06 51°13.975 2°55.528 336.7 9.1 335 11
2010-06-09 06:22:12 51°13.989 2°55.518 335.8 9.1 333 11
2010-06-09 06:22:17 51°14 2°55.509 335.4 9.2 333 10.9
2010-06-09 06:22:22 51°14.012 2°55.5 335.4 9.2 334 10.9
2010-06-09 06:22:27 51°14.024 2°55.492 336.5 9.3 336 11
2010-06-09 06:22:32 51°14.035 2°55.483 337.1 9.4 335 10.8
2010-06-09 06:22:37 51°14.047 2°55.474 336.5 9.5 334 11
2010-06-09 06:22:42 51°14.059 2°55.465 336.3 9.6 336 10.9
2010-06-09 06:22:47 51°14.071 2°55.456 336.7 9.7 335 10.9
2010-06-09 06:22:52 51°14.084 2°55.447 336.5 9.7 334 10.9
2010-06-09 06:22:57 51°14.096 2°55.437 335.4 9.8 333 10.8
2010-06-09 06:23:02 51°14.108 2°55.427 335.3 9.8 333 10.9
2010-06-09 06:23:07 51°14.12 2°55.417 334.9 9.9 332 10.9
2010-06-09 06:23:13 51°14.134 2°55.405 334.1 10 333 10.9
2010-06-09 06:23:17 51°14.144 2°55.397 334.1 10.1 333 11
2010-06-09 06:23:22 51°14.157 2°55.386 333.8 10.1 332 10.8
2010-06-09 06:23:27 51°14.169 2°55.376 333.6 10.1 332 10.8
2010-06-09 06:23:32 51°14.181 2°55.365 333.3 10.1 332 10.8
2010-06-09 06:23:38 51°14.196 2°55.352 333.1 10.2 331 -999
2010-06-09 06:23:42 51°14.206 2°55.343 333.1 10.2 331 10.9
2010-06-09 06:23:47 51°14.218 2°55.332 332.5 10.3 330 10.8
2010-06-09 06:23:52 51°14.231 2°55.321 332.5 10.3 331 10.9
2010-06-09 06:23:57 51°14.243 2°55.31 332.5 10.3 331 10.9
2010-06-09 06:24:02 51°14.256 2°55.299 332.2 10.3 330 10.9
2010-06-09 06:24:07 51°14.268 2°55.287 332.2 10.4 331 10.8
2010-06-09 06:24:12 51°14.281 2°55.276 332.6 10.5 331 10.8
2010-06-09 06:24:17 51°14.294 2°55.264 332.5 10.5 330 10.8
2010-06-09 06:24:22 51°14.306 2°55.253 332.1 10.6 331 10.8
2010-06-09 06:24:26 51°14.316 2°55.243 332.1 10.7 329 10.8
2010-06-09 06:24:32 51°14.332 2°55.229 331.5 10.7 330 10.4
2010-06-09 06:24:37 51°14.345 2°55.217 331 10.7 329 10.4
2010-06-09 06:24:42 51°14.357 2°55.205 330.9 10.8 329 10.3
2010-06-09 06:24:47 51°14.37 2°55.192 330.9 10.8 328 10.3
2010-06-09 06:24:52 51°14.382 2°55.179 330.3 10.8 327 10.4
2010-06-09 06:24:57 51°14.395 2°55.166 329.5 10.9 327 10.4
2010-06-09 06:25:02 51°14.408 2°55.153 329 10.9 327 10.8
2010-06-09 06:25:06 51°14.418 2°55.143 328.8 10.9 327 10.8
2010-06-09 06:25:12 51°14.433 2°55.126 328.7 10.9 326 10.7
2010-06-09 06:25:17 51°14.446 2°55.113 328.7 11 326 10.6
2010-06-09 06:25:22 51°14.458 2°55.099 328.5 11 326 10.9
2010-06-09 06:25:27 51°14.471 2°55.086 328.5 11 327 11.1
2010-06-09 06:25:33 51°14.486 2°55.07 328.9 11 327 11.2
2010-06-09 06:25:37 51°14.496 2°55.059 328.2 11.1 325 11.1
2010-06-09 06:25:42 51°14.509 2°55.045 327.4 11 325 11.2
2010-06-09 06:25:47 51°14.521 2°55.031 326.9 11.1 324 11.1
2010-06-09 06:25:52 51°14.534 2°55.017 327.7 11.1 326 11.5
2010-06-09 06:25:57 51°14.547 2°55.004 328.6 11 327 11.8
2010-06-09 06:26:02 51°14.56 2°54.991 330.4 11.1 329 11.6
2010-06-09 06:26:07 51°14.574 2°54.979 332.4 11.1 330 11.6
2010-06-09 06:26:12 51°14.587 2°54.967 333.5 11.1 330 11.5
2010-06-09 06:26:18 51°14.603 2°54.952 334 11.1 331 -999
2010-06-09 06:26:22 51°14.614 2°54.943 334.7 11.2 330 11.6
2010-06-09 06:26:27 51°14.628 2°54.93 334.4 11.1 329 11.4
2010-06-09 06:26:32 51°14.641 2°54.918 333.3 11 329 11.6
2010-06-09 06:26:37 51°14.654 2°54.905 333.2 11 330 -999
2010-06-09 06:26:42 51°14.667 2°54.893 334.3 11 330 11.8
2010-06-09 06:26:47 51°14.68 2°54.881 334.5 11 330 11.8
2010-06-09 06:26:52 51°14.694 2°54.87 334.1 10.9 331 11.9
2010-06-09 06:26:57 51°14.707 2°54.858 335.4 11 333 11.9
2010-06-09 06:27:02 51°14.72 2°54.847 336.5 11 333 11.8
2010-06-09 06:27:07 51°14.734 2°54.837 337.5 11.2 334 11.8
2010-06-09 06:27:12 51°14.748 2°54.826 337.9 11.3 334 11.9
2010-06-09 06:27:17 51°14.763 2°54.815 338.8 11.5 335 11.9
2010-06-09 06:27:22 51°14.777 2°54.804 339.8 11.7 336 11.8
2010-06-09 06:27:27 51°14.792 2°54.794 341.1 11.9 336 11
2010-06-09 06:27:32 51°14.807 2°54.783 341.4 12 335 10.2
2010-06-09 06:27:37 51°14.823 2°54.771 340.4 12.2 334 9.6
2010-06-09 06:27:42 51°14.838 2°54.76 340.1 12.2 335 9.7
2010-06-09 06:27:46 51°14.85 2°54.75 340.2 12.4 334 9.7
2010-06-09 06:27:52 51°14.869 2°54.737 340.2 12.5 337 9.6
2010-06-09 06:27:57 51°14.885 2°54.726 341.3 12.6 336 9.6
2010-06-09 06:28:02 51°14.901 2°54.715 341.8 12.7 337 9.3
2010-06-09 06:28:06 51°14.914 2°54.705 341.8 12.7 336 9.3
2010-06-09 06:28:12 51°14.934 2°54.693 342.3 12.8 339 9.4
2010-06-09 06:28:17 51°14.951 2°54.682 342.7 12.8 338 9.3
2010-06-09 06:28:22 51°14.967 2°54.673 344 12.8 341 9.2
2010-06-09 06:28:27 51°14.984 2°54.664 345.4 12.9 341 9
2010-06-09 06:28:32 51°15.001 2°54.655 346.3 12.8 342 8.8
2010-06-09 06:28:37 51°15.018 2°54.646 346.6 12.8 340 8.7
2010-06-09 06:28:42 51°15.034 2°54.636 346.1 12.8 339 8.7
2010-06-09 06:28:47 51°15.051 2°54.625 344.6 12.8 336 8.3
2010-06-09 06:28:52 51°15.067 2°54.612 342.3 12.8 333 8.4
2010-06-09 06:28:57 51°15.082 2°54.599 339.2 12.7 330 8.2
2010-06-09 06:29:02 51°15.097 2°54.584 336 12.8 328 8.3
2010-06-09 06:29:07 51°15.112 2°54.568 333.7 12.9 327 8.5
2010-06-09 06:29:12 51°15.127 2°54.552 332.5 12.9 326 8.3
2010-06-09 06:29:17 51°15.142 2°54.536 331.9 12.9 326 8.3
2010-06-09 06:29:22 51°15.156 2°54.52 331.8 13 327 8.5
2010-06-09 06:29:27 51°15.172 2°54.505 332.2 13 328 8.6
2010-06-09 06:29:32 51°15.187 2°54.491 333.6 13 331 8.6
2010-06-09 06:29:37 51°15.203 2°54.477 335.9 13.1 333 8.6
2010-06-09 06:29:42 51°15.22 2°54.465 338.5 13.1 335 8.7
2010-06-09 06:29:47 51°15.236 2°54.452 339.8 13.1 335 8.7
2010-06-09 06:29:52 51°15.253 2°54.441 340.4 13.1 335 8.8
2010-06-09 06:29:57 51°15.269 2°54.429 340.6 13.2 335 9
2010-06-09 06:30:02 51°15.286 2°54.416 340.5 13.2 334 8.9
2010-06-09 06:30:06 51°15.299 2°54.406 340.3 13.1 333 9
2010-06-09 06:30:12 51°15.318 2°54.39 338.7 13.2 333 9
2010-06-09 06:30:17 51°15.335 2°54.376 337.6 13.2 331 9
2010-06-09 06:30:22 51°15.35 2°54.361 336.6 13.3 331 9.1
2010-06-09 06:30:27 51°15.366 2°54.347 335.8 13.3 329 9.3
2010-06-09 06:30:33 51°15.385 2°54.329 335.2 13.2 330 9.3
2010-06-09 06:30:38 51°15.401 2°54.313 334.6 13.4 328 9.4
2010-06-09 06:30:43 51°15.417 2°54.298 334.2 13.4 329 9.4
2010-06-09 06:30:48 51°15.433 2°54.282 333.8 13.5 328 9.4
2010-06-09 06:30:53 51°15.449 2°54.267 333.5 13.4 329 9.6
2010-06-09 06:30:58 51°15.464 2°54.251 333.6 13.3 328 9.4
2010-06-09 06:31:03 51°15.48 2°54.236 334.1 13.3 330 9.6
2010-06-09 06:31:08 51°15.496 2°54.221 334.5 13.3 329 9.8
2010-06-09 06:31:13 51°15.512 2°54.206 335 13.4 329 9.8
2010-06-09 06:31:18 51°15.528 2°54.191 335.1 13.4 330 9.9
2010-06-09 06:31:23 51°15.544 2°54.176 335.1 13.4 329 10.1
2010-06-09 06:31:28 51°15.56 2°54.161 334.8 13.3 329 9.9
2010-06-09 06:31:33 51°15.576 2°54.146 334.5 13.3 329 10
2010-06-09 06:31:38 51°15.592 2°54.131 334.6 13.3 329 10.1
2010-06-09 06:31:43 51°15.608 2°54.115 334.6 13.3 329 10.2
2010-06-09 06:31:47 51°15.621 2°54.103 334.7 13.3 329 10.2
2010-06-09 06:31:53 51°15.64 2°54.085 334.9 13.3 330 10.3
2010-06-09 06:31:58 51°15.656 2°54.07 335.2 13.3 329 10.4
2010-06-09 06:32:03 51°15.672 2°54.055 335.2 13.3 330 10.4
2010-06-09 06:32:08 51°15.688 2°54.041 335.3 13.3 330 10.5
2010-06-09 06:32:13 51°15.704 2°54.026 335.4 13.4 330 10.7
2010-06-09 06:32:18 51°15.72 2°54.011 335.3 13.2 330 10.6
2010-06-09 06:32:23 51°15.735 2°53.996 335.2 13.2 329 10.6
2010-06-09 06:32:27 51°15.747 2°53.984 334.8 13.2 327 10.8
2010-06-09 06:32:33 51°15.765 2°53.963 332.1 13.2 325 10.8
2010-06-09 06:32:38 51°15.78 2°53.947 331.5 13.2 326 10.9
2010-06-09 06:32:43 51°15.795 2°53.93 330.6 13.2 323 10.8
2010-06-09 06:32:48 51°15.81 2°53.913 330.2 13.2 324 11
2010-06-09 06:32:53 51°15.824 2°53.895 329.6 13.1 323 10.9
2010-06-09 06:32:58 51°15.839 2°53.878 329.6 13.2 323 10.9
2010-06-09 06:33:03 51°15.854 2°53.86 329.3 13.2 323 10.9
2010-06-09 06:33:08 51°15.868 2°53.843 329 13.1 323 11.4
2010-06-09 06:33:13 51°15.883 2°53.825 329 13.2 324 11.3
2010-06-09 06:33:17 51°15.895 2°53.811 329.1 13.1 323 11
2010-06-09 06:33:23 51°15.912 2°53.791 329.1 13.1 324 11
2010-06-09 06:33:28 51°15.926 2°53.773 329.4 13 323 11.5
2010-06-09 06:33:33 51°15.941 2°53.756 329.6 13.1 324 11.4
2010-06-09 06:33:38 51°15.956 2°53.739 329.6 13.1 324 11.5
2010-06-09 06:33:43 51°15.97 2°53.722 329.6 13.1 324 11.4
2010-06-09 06:33:47 51°15.982 2°53.709 329.7 13.1 324 11.4
2010-06-09 06:33:53 51°16 2°53.688 329.7 13.1 324 11.3
2010-06-09 06:33:57 51°16.012 2°53.674 329.6 13.1 323 11.5
2010-06-09 06:34:03 51°16.029 2°53.653 329.3 13.1 324 11.6
2010-06-09 06:34:08 51°16.044 2°53.636 329.4 13.2 324 11.5
2010-06-09 06:34:13 51°16.059 2°53.619 329.6 13.2 324 11.4
2010-06-09 06:34:18 51°16.074 2°53.602 329.6 13.2 324 11.5
2010-06-09 06:34:23 51°16.088 2°53.585 329.5 13.2 324 11.7
2010-06-09 06:34:27 51°16.1 2°53.571 329.5 13.2 324 11.6
2010-06-09 06:34:33 51°16.118 2°53.55 329.4 13.2 324 11.6
2010-06-09 06:34:38 51°16.133 2°53.533 329.6 13.3 324 11.6
2010-06-09 06:34:43 51°16.147 2°53.515 329.5 13.3 323 11.7
2010-06-09 06:34:48 51°16.162 2°53.498 329.3 13.3 324 11.7
2010-06-09 06:34:53 51°16.177 2°53.48 329.4 13.3 323 12.1
2010-06-09 06:34:57 51°16.189 2°53.466 329.8 13.3 324 11.7
2010-06-09 06:35:03 51°16.207 2°53.446 330 13.3 324 11.8
2010-06-09 06:35:08 51°16.221 2°53.429 330.2 13.3 324 12.1
2010-06-09 06:35:13 51°16.236 2°53.412 330.1 13.3 324 11.9
2010-06-09 06:35:18 51°16.251 2°53.395 330 13.3 324 12
2010-06-09 06:35:23 51°16.266 2°53.377 330 13.3 324 12
2010-06-09 06:35:27 51°16.278 2°53.364 330 13.2 324 11.9
2010-06-09 06:35:33 51°16.296 2°53.343 330 13.2 324 12
2010-06-09 06:35:38 51°16.311 2°53.327 330 13.3 325 12.2
2010-06-09 06:35:43 51°16.326 2°53.31 330.2 13.2 325 12
2010-06-09 06:35:48 51°16.341 2°53.294 330.6 13.1 326 12
2010-06-09 06:35:53 51°16.355 2°53.277 330.5 13.1 325 12
2010-06-09 06:35:58 51°16.37 2°53.261 330.5 13.1 326 12.1
2010-06-09 06:36:03 51°16.385 2°53.244 330.5 13.1 326 12
2010-06-09 06:36:08 51°16.4 2°53.228 330.5 13.1 326 12
2010-06-09 06:36:13 51°16.415 2°53.211 330.3 13.1 325 11.9
2010-06-09 06:36:18 51°16.43 2°53.195 330.2 13 325 11.9
2010-06-09 06:36:23 51°16.445 2°53.178 329.8 13.1 325 12
2010-06-09 06:36:28 51°16.459 2°53.162 329.9 13 325 11.8
2010-06-09 06:36:33 51°16.474 2°53.145 329.8 13.1 325 12
2010-06-09 06:36:38 51°16.489 2°53.129 329.8 13.1 325 12.1
2010-06-09 06:36:43 51°16.505 2°53.114 330.8 13 328 11.9
2010-06-09 06:36:47 51°16.517 2°53.102 331.9 13 328 11.9
2010-06-09 06:36:53 51°16.535 2°53.084 332.7 13 329 11.8
2010-06-09 06:36:58 51°16.551 2°53.069 333.6 12.9 329 11.6
2010-06-09 06:37:03 51°16.566 2°53.055 334.1 13 330 11.8
2010-06-09 06:37:07 51°16.579 2°53.044 334.7 12.9 331 11.7
2010-06-09 06:37:13 51°16.597 2°53.027 335.3 12.8 331 11.4
2010-06-09 06:37:18 51°16.613 2°53.013 335.4 12.9 331 11.6
2010-06-09 06:37:23 51°16.629 2°52.999 335.8 12.9 331 11.5
2010-06-09 06:37:28 51°16.644 2°52.985 335.5 12.9 330 11.2
2010-06-09 06:37:33 51°16.66 2°52.971 335.3 12.8 330 11.1
2010-06-09 06:37:38 51°16.675 2°52.957 335 12.9 330 11.5
2010-06-09 06:37:43 51°16.691 2°52.943 335.1 12.9 331 11.2
2010-06-09 06:37:48 51°16.706 2°52.929 335.4 12.8 331 11
2010-06-09 06:37:53 51°16.722 2°52.915 335.8 12.9 331 11
2010-06-09 06:37:58 51°16.737 2°52.902 335.6 12.9 331 10.8
2010-06-09 06:38:03 51°16.753 2°52.887 335.5 12.8 331 10.6
2010-06-09 06:38:07 51°16.765 2°52.876 335.4 12.8 330 10.3
2010-06-09 06:38:13 51°16.784 2°52.86 335.2 12.8 331 10
2010-06-09 06:38:18 51°16.799 2°52.846 335.4 12.7 331 9.8
2010-06-09 06:38:23 51°16.815 2°52.832 335.5 12.7 331 9.7
2010-06-09 06:38:28 51°16.83 2°52.818 335.7 12.7 330 9.7
2010-06-09 06:38:33 51°16.845 2°52.805 335.6 12.7 331 9.6
2010-06-09 06:38:38 51°16.86 2°52.791 335.4 12.6 331 9.3
2010-06-09 06:38:43 51°16.876 2°52.778 336.3 12.6 333 9.5
2010-06-09 06:38:48 51°16.892 2°52.766 337.5 12.6 333 9.5
2010-06-09 06:38:53 51°16.908 2°52.755 339.1 12.7 336 9.4
2010-06-09 06:38:58 51°16.924 2°52.744 340.8 12.7 336 9.6
2010-06-09 06:39:03 51°16.94 2°52.734 341.5 12.7 338 9.7
2010-06-09 06:39:07 51°16.953 2°52.725 342.9 12.7 338 9.7
2010-06-09 06:39:13 51°16.973 2°52.713 343.5 12.7 340 9.9
2010-06-09 06:39:18 51°16.99 2°52.704 344.6 12.7 340 10
2010-06-09 06:39:23 51°17.007 2°52.695 345.2 12.7 341 10.1
2010-06-09 06:39:28 51°17.023 2°52.686 345.6 12.8 341 10.2
2010-06-09 06:39:33 51°17.04 2°52.677 346.2 12.8 342 10.1
2010-06-09 06:39:38 51°17.057 2°52.668 346.6 12.7 342 10.3
2010-06-09 06:39:43 51°17.074 2°52.659 346.6 12.7 342 9.9
2010-06-09 06:39:48 51°17.091 2°52.652 347.1 12.6 344 9.7
2010-06-09 06:39:53 51°17.107 2°52.644 348.4 12.5 344 9.9
2010-06-09 06:39:58 51°17.124 2°52.639 350.2 12.5 348 9.7
2010-06-09 06:40:03 51°17.141 2°52.633 351.7 12.5 347 9.7
2010-06-09 06:40:07 51°17.155 2°52.63 353.3 12.5 350 9.8
2010-06-09 06:40:13 51°17.175 2°52.623 354.3 12.5 350 9.8
2010-06-09 06:40:18 51°17.192 2°52.619 354.8 12.5 351 9.7
2010-06-09 06:40:23 51°17.21 2°52.616 355.5 12.5 352 9.8
2010-06-09 06:40:28 51°17.227 2°52.612 356.5 12.5 352 9.8
2010-06-09 06:40:33 51°17.244 2°52.608 356.4 12.6 353 9.8
2010-06-09 06:40:38 51°17.261 2°52.604 356.6 12.5 352 9.9
2010-06-09 06:40:43 51°17.278 2°52.601 356.9 12.5 353 9.9
2010-06-09 06:40:48 51°17.296 2°52.597 357.2 12.5 352 10.1
2010-06-09 06:40:53 51°17.313 2°52.593 357 12.5 352 10.1
2010-06-09 06:40:58 51°17.33 2°52.59 356.9 12.5 352 10.1
2010-06-09 06:41:03 51°17.347 2°52.586 356.9 12.5 352 10.2
2010-06-09 06:41:07 51°17.361 2°52.583 356.8 12.5 353 10.3
2010-06-09 06:41:13 51°17.382 2°52.579 356.8 12.5 353 10.2
2010-06-09 06:41:18 51°17.399 2°52.575 357 12.6 353 10.5
2010-06-09 06:41:23 51°17.416 2°52.571 356.9 12.6 352 10.3
2010-06-09 06:41:28 51°17.433 2°52.567 356.7 12.5 352 10.3
2010-06-09 06:41:33 51°17.451 2°52.563 356.4 12.6 352 10.5
2010-06-09 06:41:38 51°17.468 2°52.559 356.5 12.6 352 10.5
2010-06-09 06:41:43 51°17.485 2°52.556 356.8 12.5 352 10.4
2010-06-09 06:41:48 51°17.502 2°52.551 356.7 12.5 352 10.5
2010-06-09 06:41:53 51°17.52 2°52.548 356.6 12.5 352 10.4
2010-06-09 06:41:58 51°17.537 2°52.544 356.6 12.5 352 10.3
2010-06-09 06:42:03 51°17.554 2°52.54 356.5 12.5 352 10.5
2010-06-09 06:42:08 51°17.571 2°52.535 356.4 12.6 351 10.3
2010-06-09 06:42:13 51°17.588 2°52.53 355.7 12.5 350 10.5
2010-06-09 06:42:18 51°17.605 2°52.526 354.9 12.5 350 10.5
2010-06-09 06:42:23 51°17.622 2°52.52 354.3 12.5 349 10.7
2010-06-09 06:42:27 51°17.636 2°52.515 353.7 12.5 349 10.5
2010-06-09 06:42:33 51°17.657 2°52.508 353.3 12.6 348 10.6
2010-06-09 06:42:38 51°17.674 2°52.503 352.9 12.5 348 10.5
2010-06-09 06:42:43 51°17.691 2°52.497 352.8 12.5 348 10.6
2010-06-09 06:42:48 51°17.708 2°52.491 353 12.6 348 10.6
2010-06-09 06:42:53 51°17.725 2°52.486 353.2 12.6 348 10.4
2010-06-09 06:42:58 51°17.742 2°52.48 353.4 12.6 348 10.4
2010-06-09 06:43:03 51°17.759 2°52.475 353.3 12.6 348 10.7
2010-06-09 06:43:07 51°17.773 2°52.47 352.9 12.5 348 10.5
2010-06-09 06:43:13 51°17.793 2°52.463 352.8 12.6 347 10.6
2010-06-09 06:43:18 51°17.81 2°52.456 352.6 12.6 347 10.9
2010-06-09 06:43:23 51°17.827 2°52.451 352.3 12.6 347 10.5
2010-06-09 06:43:28 51°17.844 2°52.445 352.4 12.5 348 10.6
2010-06-09 06:43:33 51°17.861 2°52.439 352.6 12.6 348 10.7
2010-06-09 06:43:38 51°17.878 2°52.433 352.7 12.6 347 10.6
2010-06-09 06:43:43 51°17.895 2°52.426 352.5 12.5 347 10.5
2010-06-09 06:43:48 51°17.912 2°52.42 352.3 12.5 348 10.8
2010-06-09 06:43:53 51°17.93 2°52.415 352.3 12.6 348 10.7
2010-06-09 06:43:58 51°17.947 2°52.409 352.8 12.6 348 10.8
2010-06-09 06:44:03 51°17.964 2°52.403 352.8 12.6 348 10.7
2010-06-09 06:44:08 51°17.981 2°52.398 352.8 12.6 348 10.6
2010-06-09 06:44:13 51°17.998 2°52.392 352.8 12.6 348 10.6
2010-06-09 06:44:18 51°18.015 2°52.386 352.5 12.6 348 10.8
2010-06-09 06:44:23 51°18.032 2°52.38 352.5 12.6 348 10.6
2010-06-09 06:44:27 51°18.046 2°52.376 352.6 12.7 349 10.9
2010-06-09 06:44:33 51°18.067 2°52.37 352.7 12.7 349 10.8
2010-06-09 06:44:38 51°18.084 2°52.364 352.6 12.7 348 10.9
2010-06-09 06:44:43 51°18.101 2°52.359 352.5 12.7 349 10.8
2010-06-09 06:44:48 51°18.118 2°52.354 352.8 12.7 350 10.8
2010-06-09 06:44:53 51°18.136 2°52.349 353.2 12.7 349 11
2010-06-09 06:44:58 51°18.153 2°52.343 353.1 12.7 348 10.9
2010-06-09 06:45:03 51°18.17 2°52.337 352.5 12.7 347 11
2010-06-09 06:45:07 51°18.184 2°52.332 352 12.7 347 11.2
2010-06-09 06:45:13 51°18.205 2°52.325 352.1 12.7 348 10.9
2010-06-09 06:45:18 51°18.222 2°52.319 352.1 12.7 348 11
2010-06-09 06:45:23 51°18.239 2°52.313 352.2 12.7 348 11.2
2010-06-09 06:45:28 51°18.256 2°52.307 352.2 12.7 348 11
2010-06-09 06:45:33 51°18.273 2°52.301 352.1 12.7 347 11.2
2010-06-09 06:45:38 51°18.291 2°52.295 352.1 12.7 348 11.3
2010-06-09 06:45:43 51°18.308 2°52.29 352.2 12.7 348 11.4
2010-06-09 06:45:48 51°18.325 2°52.284 352.6 12.7 349 11.4
2010-06-09 06:45:53 51°18.342 2°52.278 352.5 12.7 348 11.3
2010-06-09 06:45:58 51°18.36 2°52.272 352.7 12.7 349 11.4
2010-06-09 06:46:03 51°18.377 2°52.266 352.4 12.7 347 11.5
2010-06-09 06:46:08 51°18.394 2°52.261 352.1 12.7 349 11.5
2010-06-09 06:46:13 51°18.411 2°52.254 352.3 12.7 347 11.5
2010-06-09 06:46:18 51°18.428 2°52.249 352.1 12.7 348 11.7
2010-06-09 06:46:23 51°18.446 2°52.242 352.1 12.6 347 11.7
2010-06-09 06:46:27 51°18.459 2°52.238 352 12.7 348 11.5
2010-06-09 06:46:33 51°18.48 2°52.23 351.9 12.7 347 11.7
2010-06-09 06:46:38 51°18.497 2°52.225 352.1 12.6 348 11.7
2010-06-09 06:46:43 51°18.514 2°52.218 352.1 12.7 347 11.8
2010-06-09 06:46:48 51°18.531 2°52.212 352 12.6 347 11.9
2010-06-09 06:46:53 51°18.549 2°52.206 352.1 12.7 347 11.9
2010-06-09 06:46:58 51°18.566 2°52.2 351.8 12.7 348 12.1
2010-06-09 06:47:03 51°18.583 2°52.194 352.3 12.7 348 12
2010-06-09 06:47:07 51°18.597 2°52.189 352.2 12.7 347 12.2
2010-06-09 06:47:13 51°18.617 2°52.182 352.2 12.7 347 12.4
2010-06-09 06:47:18 51°18.635 2°52.175 352.1 12.8 347 12.4
2010-06-09 06:47:23 51°18.652 2°52.169 352.1 12.8 347 12.2
2010-06-09 06:47:28 51°18.669 2°52.163 352.1 12.6 347 12.5
2010-06-09 06:47:33 51°18.686 2°52.157 352.1 12.7 347 12.8
2010-06-09 06:47:38 51°18.703 2°52.15 352.1 12.7 347 12.7
2010-06-09 06:47:43 51°18.72 2°52.144 352.1 12.7 347 12.8
2010-06-09 06:47:48 51°18.737 2°52.138 352.1 12.6 347 13.2
2010-06-09 06:47:53 51°18.755 2°52.131 352.1 12.7 347 13.1
2010-06-09 06:47:58 51°18.772 2°52.125 352.1 12.7 347 13
2010-06-09 06:48:03 51°18.789 2°52.118 352.1 12.7 347 13.4
2010-06-09 06:48:08 51°18.806 2°52.112 352.1 12.7 347 13.3
2010-06-09 06:48:13 51°18.823 2°52.105 352.1 12.7 347 13.4
2010-06-09 06:48:18 51°18.841 2°52.098 352.1 12.8 346 13.5
2010-06-09 06:48:23 51°18.858 2°52.092 352.1 12.8 347 13.5
2010-06-09 06:48:27 51°18.872 2°52.087 352.1 12.7 346 13.9
2010-06-09 06:48:33 51°18.893 2°52.079 352.1 12.8 347 13.9
2010-06-09 06:48:38 51°18.91 2°52.072 352.1 12.8 346 13.8
2010-06-09 06:48:43 51°18.927 2°52.066 352.1 12.8 347 13.9
2010-06-09 06:48:48 51°18.944 2°52.059 352.2 12.8 346 14.1
2010-06-09 06:48:53 51°18.962 2°52.053 352.2 12.8 347 14.1
2010-06-09 06:48:58 51°18.979 2°52.046 352.3 12.8 347 14.2
2010-06-09 06:49:03 51°18.996 2°52.04 352.4 12.8 347 14.3
2010-06-09 06:49:07 51°19.01 2°52.035 352.7 12.9 347 14.6
2010-06-09 06:49:13 51°19.031 2°52.027 352.2 12.9 347 14.6
2010-06-09 06:49:18 51°19.048 2°52.02 352.3 12.8 347 14.5
2010-06-09 06:49:23 51°19.065 2°52.014 352.2 12.8 347 14.8
2010-06-09 06:49:28 51°19.083 2°52.008 352.4 12.8 347 14.9
2010-06-09 06:49:33 51°19.1 2°52.001 352.7 12.8 347 14.8
2010-06-09 06:49:38 51°19.117 2°51.995 352.7 12.8 347 14.7
2010-06-09 06:49:43 51°19.135 2°51.988 352.5 12.8 347 14.9
2010-06-09 06:49:48 51°19.152 2°51.982 352.7 12.9 347 15.2
2010-06-09 06:49:53 51°19.169 2°51.976 352.8 12.8 348 15.3
2010-06-09 06:49:58 51°19.187 2°51.97 353 12.8 347 15.4
2010-06-09 06:50:03 51°19.204 2°51.963 352.7 12.8 347 15.5
2010-06-09 06:50:07 51°19.218 2°51.958 352.3 12.9 347 15.6
2010-06-09 06:50:13 51°19.239 2°51.951 352.3 12.9 347 15.6
2010-06-09 06:50:18 51°19.256 2°51.944 352.4 12.9 347 15.5
2010-06-09 06:50:23 51°19.274 2°51.938 352.6 12.9 347 15.7
2010-06-09 06:50:28 51°19.291 2°51.932 352.3 12.8 347 15.6
2010-06-09 06:50:33 51°19.308 2°51.925 352.2 12.9 347 15.7
2010-06-09 06:50:38 51°19.326 2°51.919 352.1 12.9 347 15.6
2010-06-09 06:50:43 51°19.343 2°51.912 352 12.8 347 15.8
2010-06-09 06:50:48 51°19.36 2°51.906 352 12.8 347 15.8
2010-06-09 06:50:53 51°19.378 2°51.9 352 12.9 347 16
2010-06-09 06:50:58 51°19.395 2°51.893 352 12.9 347 15.8
2010-06-09 06:51:03 51°19.413 2°51.887 352 12.8 347 16.1
2010-06-09 06:51:07 51°19.427 2°51.882 352 12.8 347 15.9
2010-06-09 06:51:13 51°19.448 2°51.875 351.9 12.9 347 16
2010-06-09 06:51:18 51°19.465 2°51.868 352.1 12.9 348 16.1
2010-06-09 06:51:23 51°19.482 2°51.862 352.1 12.9 347 15.9
2010-06-09 06:51:28 51°19.499 2°51.856 352 12.8 347 16
2010-06-09 06:51:33 51°19.517 2°51.85 351.9 12.8 347 16.3
2010-06-09 06:51:38 51°19.534 2°51.844 352.3 12.8 348 16.2
2010-06-09 06:51:43 51°19.551 2°51.838 352.3 12.8 347 15.8
2010-06-09 06:51:48 51°19.569 2°51.832 352.3 12.7 348 16
2010-06-09 06:51:53 51°19.586 2°51.826 352.3 12.8 348 16.2
2010-06-09 06:51:58 51°19.604 2°51.82 352.2 12.8 348 16.1
2010-06-09 06:52:03 51°19.621 2°51.813 352.4 12.8 347 16.2
2010-06-09 06:52:07 51°19.635 2°51.809 352.4 12.8 348 16.2
2010-06-09 06:52:13 51°19.655 2°51.801 352.2 12.8 347 16.1
2010-06-09 06:52:18 51°19.673 2°51.795 352 12.8 347 16.2
2010-06-09 06:52:23 51°19.689 2°51.788 351.7 12.5 346 16.2
2010-06-09 06:52:28 51°19.706 2°51.782 351.5 12.2 347 16.2
2010-06-09 06:52:33 51°19.722 2°51.776 351.6 11.9 347 16.2
2010-06-09 06:52:38 51°19.738 2°51.771 352.1 11.6 348 16.1
2010-06-09 06:52:43 51°19.753 2°51.766 352.3 11.5 348 16.2
2010-06-09 06:52:48 51°19.769 2°51.761 352.6 11.4 349 15.9
2010-06-09 06:52:53 51°19.784 2°51.756 353 11.3 349 16
2010-06-09 06:52:58 51°19.799 2°51.752 353.5 11.2 350 16
2010-06-09 06:53:03 51°19.814 2°51.747 353.1 11.1 349 15.9
2010-06-09 06:53:07 51°19.826 2°51.744 352.9 11.1 349 15.9
2010-06-09 06:53:13 51°19.844 2°51.738 352.7 11 349 15.8
2010-06-09 06:53:18 51°19.859 2°51.733 352.5 11 349 15.6
2010-06-09 06:53:23 51°19.874 2°51.728 352.4 11 349 15.7
2010-06-09 06:53:28 51°19.889 2°51.724 352.4 11 349 15.7
2010-06-09 06:53:33 51°19.904 2°51.719 352.2 10.9 349 15.5
2010-06-09 06:53:38 51°19.919 2°51.714 352.4 10.9 349 15.4
2010-06-09 06:53:43 51°19.934 2°51.71 352.5 10.9 349 15.4
2010-06-09 06:53:47 51°19.946 2°51.706 352.6 10.9 348 15.2
2010-06-09 06:53:53 51°19.964 2°51.7 352.2 11 348 15.3
2010-06-09 06:53:58 51°19.978 2°51.695 352 11 348 15.1
2010-06-09 06:54:03 51°19.993 2°51.69 352.1 10.9 349 15.2
2010-06-09 06:54:07 51°20.005 2°51.687 352.3 10.9 349 14.9
2010-06-09 06:54:13 51°20.023 2°51.681 352.5 10.8 349 14.9
2010-06-09 06:54:18 51°20.037 2°51.676 352.5 10.8 349 14.7
2010-06-09 06:54:23 51°20.052 2°51.672 352.2 10.7 349 14.4
2010-06-09 06:54:27 51°20.064 2°51.668 352.2 10.7 348 14.4
2010-06-09 06:54:33 51°20.082 2°51.662 352.1 11 348 14.2
2010-06-09 06:54:38 51°20.097 2°51.657 352.1 11.2 348 14.2
2010-06-09 06:54:43 51°20.113 2°51.651 352.1 11.5 348 14.2
2010-06-09 06:54:47 51°20.125 2°51.647 352.1 11.8 349 13.7
2010-06-09 06:54:53 51°20.145 2°51.641 352.1 12.1 349 13.1
2010-06-09 06:54:58 51°20.162 2°51.636 352.4 12.3 349 12.3
2010-06-09 06:55:03 51°20.179 2°51.631 352.8 12.4 349 12.3
2010-06-09 06:55:08 51°20.196 2°51.627 353.6 12.6 351 12.5
2010-06-09 06:55:13 51°20.214 2°51.622 353.7 12.8 351 12.3
2010-06-09 06:55:18 51°20.232 2°51.618 354 12.9 351 12.6
2010-06-09 06:55:23 51°20.249 2°51.613 354.5 12.9 351 12.6
2010-06-09 06:55:28 51°20.267 2°51.608 354.5 12.9 350 13
2010-06-09 06:55:33 51°20.285 2°51.603 354.2 13 350 13
2010-06-09 06:55:38 51°20.302 2°51.598 354 13 350 13.3
2010-06-09 06:55:43 51°20.32 2°51.594 353.9 13 350 13.1
2010-06-09 06:55:48 51°20.338 2°51.589 354.3 13 350 13.4
2010-06-09 06:55:53 51°20.356 2°51.584 354.3 13 351 13.6
2010-06-09 06:55:58 51°20.374 2°51.579 354.3 13.1 350 13.8
2010-06-09 06:56:03 51°20.391 2°51.575 354.3 13.1 351 13.9
2010-06-09 06:56:08 51°20.409 2°51.57 354.4 13 351 13.9
2010-06-09 06:56:13 51°20.427 2°51.565 354.6 13 351 14.1
2010-06-09 06:56:18 51°20.445 2°51.56 354.8 13.1 351 14.2
2010-06-09 06:56:23 51°20.463 2°51.555 354.7 13.1 350 14.5
2010-06-09 06:56:27 51°20.477 2°51.551 354.5 13.1 350 14.4
2010-06-09 06:56:33 51°20.499 2°51.546 354.3 13.1 350 14.6
2010-06-09 06:56:38 51°20.517 2°51.54 354.3 13.1 350 14.9
2010-06-09 06:56:43 51°20.535 2°51.535 354.3 13.1 350 15
2010-06-09 06:56:48 51°20.552 2°51.53 354.4 13.1 350 15.4
2010-06-09 06:56:53 51°20.57 2°51.525 354.5 13.1 350 15.3
2010-06-09 06:56:58 51°20.588 2°51.52 354.4 13.1 350 15.8
2010-06-09 06:57:03 51°20.606 2°51.515 354.3 13.1 349 15.6
2010-06-09 06:57:08 51°20.624 2°51.51 354.3 13.1 350 16
2010-06-09 06:57:13 51°20.642 2°51.505 354.3 13.1 349 15.8
2010-06-09 06:57:13 51°20.642 2°51.505 354.3 13.1 350 15.8
2010-06-09 06:57:23 51°20.677 2°51.494 354.2 13.1 350 16
2010-06-09 06:57:27 51°20.692 2°51.49 354.3 13.1 350 16.1
2010-06-09 06:57:33 51°20.713 2°51.484 354.4 13.1 350 16.2
2010-06-09 06:57:38 51°20.731 2°51.479 354.3 13.1 349 16.6
2010-06-09 06:57:43 51°20.749 2°51.473 354.1 13.1 350 16.6
2010-06-09 06:57:47 51°20.763 2°51.469 354.1 13.1 349 16.7
2010-06-09 06:58:07 51°20.835 2°51.447 353.9 13.2 349 17.4
2010-06-09 06:58:19 51°20.878 2°51.433 354.1 13.2 349 18
2010-06-09 06:58:25 51°20.899 2°51.427 354.2 13.2 350 18.4
2010-06-09 06:58:30 51°20.917 2°51.421 354.5 13.1 349 18.4
2010-06-09 06:58:35 51°20.935 2°51.416 354.3 13.1 350 18.7
2010-06-09 06:58:39 51°20.95 2°51.412 354.5 13.2 349 18.7
2010-06-09 06:58:45 51°20.971 2°51.406 354.5 13.2 350 18.9
2010-06-09 06:58:50 51°20.989 2°51.4 354.5 13.2 349 19
2010-06-09 06:58:55 51°21.007 2°51.395 354.5 13.2 349 19.3
2010-06-09 06:59:00 51°21.025 2°51.39 354.5 13.2 349 19.7
2010-06-09 06:59:05 51°21.043 2°51.384 354.5 13.2 349 19.9
2010-06-09 06:59:10 51°21.061 2°51.379 354.5 13.2 349 20.2
2010-06-09 06:59:15 51°21.079 2°51.373 354.3 13.2 349 20.4
2010-06-09 06:59:19 51°21.094 2°51.369 354.3 13.2 350 20.8
2010-06-09 06:59:25 51°21.115 2°51.362 354.3 13.2 349 21.1
2010-06-09 06:59:30 51°21.133 2°51.356 354.4 13.3 349 21.3
2010-06-09 06:59:42 51°21.176 2°51.339 351.9 13.3 344 21.9
2010-06-09 06:59:47 51°21.194 2°51.332 350.7 13.3 346 21.9
2010-06-09 06:59:52 51°21.212 2°51.323 350.4 13.3 344 22.1
2010-06-09 06:59:57 51°21.23 2°51.316 349.6 13.3 345 22.5
2010-06-09 07:00:08 51°21.268 2°51.298 349.1 13.3 344 22.8
2010-06-09 07:00:13 51°21.286 2°51.289 348.7 13.4 343 23.1
2010-06-09 07:00:18 51°21.304 2°51.28 348.8 13.4 344 23.2
2010-06-09 07:00:23 51°21.322 2°51.271 348.6 13.3 343 23.2
2010-06-09 07:00:28 51°21.339 2°51.262 348.5 13.4 343 23.8
2010-06-09 07:00:33 51°21.357 2°51.254 348.5 13.4 344 23.4
2010-06-09 07:00:38 51°21.375 2°51.246 348.8 13.4 344 23.5
2010-06-09 07:00:43 51°21.393 2°51.238 349.1 13.4 344 23.9
2010-06-09 07:00:48 51°21.411 2°51.23 349.2 13.4 344 24
2010-06-09 07:00:53 51°21.429 2°51.222 348.9 13.4 344 24.2
2010-06-09 07:00:58 51°21.447 2°51.214 349.1 13.4 345 23.9
2010-06-09 07:01:03 51°21.464 2°51.207 349.5 13.3 345 23.9
2010-06-09 07:01:08 51°21.482 2°51.197 349.2 13.3 342 24.4
2010-06-09 07:01:13 51°21.5 2°51.189 348 13.3 342 24.3
2010-06-09 07:01:18 51°21.517 2°51.178 345.8 13.3 339 24.3
2010-06-09 07:01:23 51°21.534 2°51.168 344.6 13.3 340 24.4
2010-06-09 07:01:27 51°21.548 2°51.158 343.3 13.4 337 24.3
2010-06-09 07:01:33 51°21.568 2°51.145 342.4 13.4 338 24.2
2010-06-09 07:01:38 51°21.585 2°51.133 341.4 13.3 336 24.3
2010-06-09 07:01:43 51°21.602 2°51.121 340.5 13.3 336 24.5
2010-06-09 07:01:48 51°21.619 2°51.108 340.1 13.4 335 24.6
2010-06-09 07:01:53 51°21.635 2°51.095 339.6 13.4 334 24.5
2010-06-09 07:01:58 51°21.652 2°51.083 339.1 13.4 335 24.5
2010-06-09 07:02:03 51°21.669 2°51.07 339.2 13.4 334 24.2
2010-06-09 07:02:07 51°21.682 2°51.059 338.8 13.3 334 24.2
2010-06-09 07:02:13 51°21.702 2°51.044 338.8 13.3 334 24.3
2010-06-09 07:02:18 51°21.719 2°51.031 338.9 13.3 334 24.8
2010-06-09 07:02:23 51°21.735 2°51.019 339.1 13.3 335 24.7
2010-06-09 07:02:27 51°21.749 2°51.009 339.9 13.3 336 24.8
2010-06-09 07:02:33 51°21.769 2°50.996 340.9 13.3 337 24.6
2010-06-09 07:02:38 51°21.786 2°50.984 341.4 13.3 337 24.5
2010-06-09 07:02:43 51°21.803 2°50.973 342.2 13.2 338 24.2
2010-06-09 07:02:47 51°21.817 2°50.964 342.7 13.3 338 24.4
2010-06-09 07:02:53 51°21.837 2°50.952 342.9 13.2 339 23.9
2010-06-09 07:02:58 51°21.855 2°50.942 343.4 13.2 339 23.7
2010-06-09 07:03:03 51°21.872 2°50.933 344.7 13.1 341 23.7
2010-06-09 07:03:07 51°21.886 2°50.925 345.7 13.1 341 23.5
2010-06-09 07:03:13 51°21.907 2°50.914 346.9 13.2 342 23.7
2010-06-09 07:03:18 51°21.924 2°50.907 347.5 13 344 23.5
2010-06-09 07:03:23 51°21.942 2°50.898 348.7 13.1 344 23.4
2010-06-09 07:03:28 51°21.959 2°50.891 349 13.1 345 23.2
2010-06-09 07:03:33 51°21.977 2°50.883 349.6 13.1 345 23.3
2010-06-09 07:03:38 51°21.995 2°50.877 350 13.1 346 23.2
2010-06-09 07:03:43 51°22.013 2°50.869 350.3 13.1 345 23.2
2010-06-09 07:03:48 51°22.03 2°50.862 350.5 13.1 346 23.2
2010-06-09 07:03:53 51°22.048 2°50.856 350.8 13.2 346 23.2
2010-06-09 07:03:58 51°22.066 2°50.849 350.9 13.1 346 23.1
2010-06-09 07:04:03 51°22.083 2°50.841 351.2 13.1 346 23.4
2010-06-09 07:04:07 51°22.098 2°50.835 350.7 13.1 346 23.1
2010-06-09 07:04:13 51°22.119 2°50.827 350.7 13.1 345 23.2
2010-06-09 07:04:18 51°22.136 2°50.82 350.4 13.1 345 23.1
2010-06-09 07:04:23 51°22.154 2°50.812 350.2 13.1 346 23.3
2010-06-09 07:04:28 51°22.171 2°50.806 350.7 13 346 23.3
2010-06-09 07:04:33 51°22.189 2°50.8 351.5 13.1 347 23.4
2010-06-09 07:04:38 51°22.207 2°50.793 351.6 13.1 347 23.4
2010-06-09 07:04:43 51°22.225 2°50.787 352.3 13.2 348 23.6
2010-06-09 07:04:48 51°22.242 2°50.781 352.3 13.1 347 23.4
2010-06-09 07:04:53 51°22.26 2°50.775 352.5 13.1 348 23.2
2010-06-09 07:04:58 51°22.278 2°50.768 352.8 13.1 347 23.3
2010-06-09 07:05:03 51°22.296 2°50.762 352.7 13.1 347 23.5
2010-06-09 07:05:08 51°22.314 2°50.756 352.2 13.1 347 23.2
2010-06-09 07:05:13 51°22.332 2°50.75 352.7 13.1 348 23.3
2010-06-09 07:05:18 51°22.35 2°50.743 352.7 13.2 347 23.6
2010-06-09 07:05:23 51°22.367 2°50.737 352.6 13.1 348 23.2
2010-06-09 07:05:28 51°22.385 2°50.73 352.6 13.1 347 23.5
2010-06-09 07:05:33 51°22.403 2°50.724 352.6 13.2 347 23.9
2010-06-09 07:05:38 51°22.421 2°50.718 352.4 13.1 347 23.7
2010-06-09 07:05:43 51°22.438 2°50.711 352.5 13.1 347 23.2
2010-06-09 07:05:47 51°22.452 2°50.706 352.1 13.1 347 23.6
2010-06-09 07:05:53 51°22.474 2°50.698 352.2 13.1 347 23.6
2010-06-09 07:05:58 51°22.491 2°50.692 352.4 13.1 348 23.3
2010-06-09 07:06:03 51°22.509 2°50.685 352.5 13.1 347 23.3
2010-06-09 07:06:08 51°22.527 2°50.679 352.5 13.2 348 23.4
2010-06-09 07:06:13 51°22.545 2°50.672 352.5 13.1 347 22.9
2010-06-09 07:06:18 51°22.563 2°50.667 352.4 13.1 348 23.1
2010-06-09 07:06:23 51°22.581 2°50.661 352.8 13.2 349 23.2
2010-06-09 07:06:28 51°22.599 2°50.656 353.1 13.2 349 23.3
2010-06-09 07:06:33 51°22.617 2°50.651 353.4 13.2 350 23
2010-06-09 07:06:38 51°22.635 2°50.646 353.6 13.2 351 22.5
2010-06-09 07:06:43 51°22.653 2°50.641 353.2 13.2 349 23
2010-06-09 07:06:47 51°22.667 2°50.637 352.8 13.2 349 23
2010-06-09 07:06:53 51°22.689 2°50.63 352.7 13.2 349 22.6
2010-06-09 07:06:58 51°22.707 2°50.624 352.3 13.2 348 22.9
2010-06-09 07:07:03 51°22.725 2°50.619 352.1 13.2 349 22.6
2010-06-09 07:07:08 51°22.743 2°50.613 352.1 13.2 349 23
2010-06-09 07:07:13 51°22.761 2°50.608 352.2 13.1 350 22.4
2010-06-09 07:07:18 51°22.779 2°50.602 352.5 13.2 350 21.4
2010-06-09 07:07:23 51°22.797 2°50.597 352.6 13.2 349 20.8
2010-06-09 07:07:28 51°22.815 2°50.591 352.3 13.1 349 20.3
2010-06-09 07:07:33 51°22.832 2°50.586 352.4 13.1 349 19.4
2010-06-09 07:07:38 51°22.85 2°50.58 352.4 13.1 349 19
2010-06-09 07:07:43 51°22.868 2°50.575 352.6 13.1 349 18.5
2010-06-09 07:07:48 51°22.886 2°50.569 352.7 13 349 16.2
2010-06-09 07:07:53 51°22.904 2°50.564 352.2 13 349 15.9
2010-06-09 07:07:58 51°22.921 2°50.558 352.1 13 349 17
2010-06-09 07:08:03 51°22.939 2°50.553 352 13 349 17.7
2010-06-09 07:08:08 51°22.957 2°50.547 352.4 13.1 350 17.4
2010-06-09 07:08:13 51°22.975 2°50.542 352.2 13.1 349 16.7
2010-06-09 07:08:18 51°22.993 2°50.537 352.3 13.1 349 14.9
2010-06-09 07:08:23 51°23.01 2°50.531 352.1 13.1 349 14.8
2010-06-09 07:08:27 51°23.025 2°50.527 352.1 13.1 349 16.1
2010-06-09 07:08:33 51°23.046 2°50.52 352.2 13.1 349 16.5
2010-06-09 07:08:38 51°23.064 2°50.515 352.6 13.1 349 16.2
2010-06-09 07:08:43 51°23.082 2°50.509 352.6 13.1 349 15.8
2010-06-09 07:08:48 51°23.1 2°50.503 352.3 13.1 348 13.7
2010-06-09 07:08:53 51°23.117 2°50.497 351.8 13 348 15.8
2010-06-09 07:08:58 51°23.135 2°50.491 351.6 13.1 348 16.3
2010-06-09 07:09:03 51°23.153 2°50.485 351.7 13.1 348 16.5
2010-06-09 07:09:08 51°23.171 2°50.479 351.8 13.1 348 15.7
2010-06-09 07:09:13 51°23.188 2°50.473 351.9 13.1 348 15.2
2010-06-09 07:09:18 51°23.206 2°50.466 351.9 13.1 347 16.5
2010-06-09 07:09:23 51°23.224 2°50.46 351.6 13.1 347 17.1
2010-06-09 07:09:27 51°23.238 2°50.455 352.1 13.1 348 16.8
2010-06-09 07:09:33 51°23.259 2°50.448 352.1 13.1 348 17
2010-06-09 07:09:38 51°23.277 2°50.442 352.2 13.1 348 16.2
2010-06-09 07:09:43 51°23.295 2°50.436 352.2 13.1 348 15.6
2010-06-09 07:09:48 51°23.312 2°50.43 352.3 13.1 348 17.1
2010-06-09 07:09:53 51°23.33 2°50.424 352.7 13.1 348 17.7
2010-06-09 07:09:58 51°23.348 2°50.417 352.6 13.1 348 17.6
2010-06-09 07:10:03 51°23.366 2°50.411 352.6 13.1 348 17.8
2010-06-09 07:10:07 51°23.38 2°50.406 352.6 13.1 348 17.9
2010-06-09 07:10:13 51°23.401 2°50.399 352.6 13.1 348 17.6
2010-06-09 07:10:18 51°23.419 2°50.393 352.6 13.2 348 18
2010-06-09 07:10:23 51°23.437 2°50.386 352.6 13.2 347 17.2
2010-06-09 07:10:28 51°23.455 2°50.38 352.4 13.1 348 16.4
2010-06-09 07:10:33 51°23.472 2°50.373 352.2 13.1 347 18.4
2010-06-09 07:10:38 51°23.49 2°50.367 352.1 13.2 348 19.5
2010-06-09 07:10:43 51°23.508 2°50.361 352.2 13.1 347 19.6
2010-06-09 07:10:48 51°23.526 2°50.355 352.4 13.2 348 20.2
2010-06-09 07:10:53 51°23.544 2°50.348 352.6 13.2 347 19.9
2010-06-09 07:10:58 51°23.561 2°50.342 352.4 13.2 347 19.4
2010-06-09 07:11:03 51°23.579 2°50.335 352.3 13.2 347 20
2010-06-09 07:11:07 51°23.593 2°50.33 352.3 13.2 347 20.2
2010-06-09 07:11:13 51°23.615 2°50.322 352.4 13.2 347 19.3
2010-06-09 07:11:18 51°23.633 2°50.316 352.4 13.2 347 20.3
2010-06-09 07:11:23 51°23.65 2°50.309 352.1 13.2 347 20.8
2010-06-09 07:11:28 51°23.668 2°50.303 352.1 13.2 347 21.3
2010-06-09 07:11:33 51°23.686 2°50.296 352.2 13.3 347 21.4
2010-06-09 07:11:38 51°23.704 2°50.29 352 13.3 347 21.7
2010-06-09 07:11:43 51°23.722 2°50.283 352.3 13.3 347 21.9
2010-06-09 07:11:48 51°23.74 2°50.277 352.4 13.3 347 22.3
2010-06-09 07:11:53 51°23.758 2°50.27 352.5 13.3 347 22.2
2010-06-09 07:11:58 51°23.776 2°50.263 352.3 13.3 347 22.1
2010-06-09 07:12:03 51°23.794 2°50.257 352.2 13.3 347 22.3
2010-06-09 07:12:07 51°23.808 2°50.252 352.4 13.3 347 22.3
2010-06-09 07:12:13 51°23.83 2°50.244 352.3 13.3 348 22.5
2010-06-09 07:12:18 51°23.848 2°50.237 352.1 13.3 347 22.4
2010-06-09 07:12:23 51°23.866 2°50.231 352.2 13.3 347 22.5
2010-06-09 07:12:27 51°23.88 2°50.226 352.4 13.3 348 22.8
2010-06-09 07:12:33 51°23.902 2°50.218 352.4 13.3 347 23.3
2010-06-09 07:12:38 51°23.92 2°50.211 352.3 13.3 347 23.1
2010-06-09 07:12:43 51°23.938 2°50.205 352.6 13.3 348 23
2010-06-09 07:12:48 51°23.956 2°50.199 352.6 13.3 347 23
2010-06-09 07:12:53 51°23.974 2°50.192 352.5 13.3 348 23.2
2010-06-09 07:12:58 51°23.992 2°50.186 352.6 13.3 348 23
2010-06-09 07:13:03 51°24.01 2°50.18 352.6 13.3 347 23
2010-06-09 07:13:08 51°24.028 2°50.173 352.3 13.3 347 23.1
2010-06-09 07:13:13 51°24.046 2°50.167 352.1 13.3 348 23
2010-06-09 07:13:18 51°24.064 2°50.16 352.4 13.3 347 22.8
2010-06-09 07:13:23 51°24.082 2°50.154 352.7 13.3 348 22.7
2010-06-09 07:13:28 51°24.1 2°50.148 352.8 13.3 347 22.6
2010-06-09 07:13:33 51°24.118 2°50.142 352.7 13.2 348 22.8
2010-06-09 07:13:38 51°24.136 2°50.135 352.6 13.2 347 22.8
2010-06-09 07:13:43 51°24.154 2°50.129 352.6 13.3 348 22.8
2010-06-09 07:13:48 51°24.172 2°50.123 352.6 13.3 348 22.8
2010-06-09 07:13:53 51°24.19 2°50.117 352.9 13.2 348 22.7
2010-06-09 07:13:58 51°24.208 2°50.111 352.8 13.2 348 22.8
2010-06-09 07:14:03 51°24.226 2°50.104 352.6 13.2 347 23.4
2010-06-09 07:14:07 51°24.24 2°50.1 352.6 13.2 348 23.1
2010-06-09 07:14:13 51°24.261 2°50.091 352.1 13.2 347 23
2010-06-09 07:14:18 51°24.279 2°50.085 352.1 13.2 347 23.1
2010-06-09 07:14:23 51°24.297 2°50.079 352.1 13.2 347 23.3
2010-06-09 07:14:28 51°24.315 2°50.072 352 13.2 346 23.2
2010-06-09 07:14:33 51°24.333 2°50.066 352 13.2 348 23.2
2010-06-09 07:14:38 51°24.351 2°50.059 352.3 13.3 347 23.5
2010-06-09 07:14:43 51°24.369 2°50.053 352.1 13.2 348 23.4
2010-06-09 07:14:47 51°24.383 2°50.047 352.2 13.2 347 23.3
2010-06-09 07:14:53 51°24.405 2°50.04 352.1 13.2 348 23.3
2010-06-09 07:14:58 51°24.423 2°50.033 352.1 13.3 346 23.4
2010-06-09 07:15:03 51°24.441 2°50.027 352.1 13.3 347 23.2
2010-06-09 07:15:08 51°24.458 2°50.02 352.1 13.2 347 23.3
2010-06-09 07:15:13 51°24.476 2°50.013 352.3 13.3 347 23.6
2010-06-09 07:15:18 51°24.494 2°50.006 352.1 13.2 347 23.4
2010-06-09 07:15:23 51°24.512 2°49.999 352 13.2 347 23
2010-06-09 07:15:28 51°24.53 2°49.993 351.9 13.2 347 23.4
2010-06-09 07:15:33 51°24.548 2°49.986 352.2 13.2 347 23.3
2010-06-09 07:15:38 51°24.566 2°49.98 352.3 13.2 347 23.3
2010-06-09 07:15:43 51°24.583 2°49.973 352.7 13.2 347 23.1
2010-06-09 07:15:47 51°24.598 2°49.968 352.6 13.2 347 23.3
2010-06-09 07:15:53 51°24.619 2°49.96 352.6 13.2 347 23.2
2010-06-09 07:15:58 51°24.637 2°49.953 352.3 13.2 347 23.3
2010-06-09 07:16:03 51°24.655 2°49.946 352.4 13.2 347 23.1
2010-06-09 07:16:08 51°24.673 2°49.939 352.3 13.2 346 23.2
2010-06-09 07:16:13 51°24.691 2°49.933 352.2 13.3 347 23.2
2010-06-09 07:16:18 51°24.709 2°49.926 352.2 13.3 346 23.4
2010-06-09 07:16:23 51°24.726 2°49.919 352.3 13.2 348 23.2
2010-06-09 07:16:28 51°24.744 2°49.912 352.8 13.3 346 23.2
2010-06-09 07:16:33 51°24.762 2°49.906 352.6 13.2 347 23.2
2010-06-09 07:16:38 51°24.78 2°49.899 352.7 13.3 347 23.6
2010-06-09 07:16:43 51°24.798 2°49.892 352.4 13.3 347 23.6
2010-06-09 07:16:48 51°24.816 2°49.886 352.2 13.3 347 23.5
2010-06-09 07:16:53 51°24.834 2°49.879 352.5 13.3 347 23.5
2010-06-09 07:16:58 51°24.852 2°49.872 352.5 13.3 347 23.4
2010-06-09 07:17:03 51°24.87 2°49.866 352.3 13.3 346 23.5
2010-06-09 07:17:07 51°24.884 2°49.86 352.1 13.3 347 23.3
2010-06-09 07:17:13 51°24.906 2°49.852 352.2 13.3 347 23.5
2010-06-09 07:17:18 51°24.924 2°49.845 352.5 13.3 347 23.7
2010-06-09 07:17:23 51°24.942 2°49.839 352.5 13.3 347 23.7
2010-06-09 07:17:28 51°24.96 2°49.832 352.5 13.3 347 23.5
2010-06-09 07:17:33 51°24.977 2°49.825 352.4 13.3 347 23.6
2010-06-09 07:17:38 51°24.995 2°49.818 352.3 13.3 347 23.7
2010-06-09 07:17:43 51°25.013 2°49.812 352.4 13.3 347 23.6
2010-06-09 07:17:48 51°25.031 2°49.805 352.2 13.3 346 23.8
2010-06-09 07:17:53 51°25.049 2°49.798 352.1 13.4 346 23.8
2010-06-09 07:17:58 51°25.067 2°49.791 352 13.3 347 23.6
2010-06-09 07:18:03 51°25.085 2°49.784 352.2 13.3 347 24
2010-06-09 07:18:07 51°25.1 2°49.778 352.1 13.4 346 23.6
2010-06-09 07:18:13 51°25.121 2°49.77 352.1 13.4 347 23.6
2010-06-09 07:18:18 51°25.139 2°49.763 352.1 13.4 347 23.8
2010-06-09 07:18:23 51°25.157 2°49.756 352.3 13.4 347 23.7
2010-06-09 07:18:28 51°25.175 2°49.75 352.6 13.3 347 23.7
2010-06-09 07:18:33 51°25.193 2°49.743 352.4 13.3 347 23.5
2010-06-09 07:18:38 51°25.211 2°49.736 352.4 13.4 347 23.7
2010-06-09 07:18:43 51°25.229 2°49.73 352.6 13.4 347 23.5
2010-06-09 07:18:48 51°25.248 2°49.723 352.4 13.4 346 23.5
2010-06-09 07:18:53 51°25.266 2°49.716 352.3 13.4 347 23.5
2010-06-09 07:18:58 51°25.284 2°49.709 352.6 13.4 347 23.5
2010-06-09 07:19:03 51°25.302 2°49.703 352.5 13.4 347 23.2
2010-06-09 07:19:08 51°25.32 2°49.696 352.2 13.4 347 23.3
2010-06-09 07:19:13 51°25.338 2°49.689 352.3 13.4 347 23.4
2010-06-09 07:19:18 51°25.356 2°49.682 352.4 13.5 347 23.5
2010-06-09 07:19:23 51°25.374 2°49.676 352.4 13.5 347 23.2
2010-06-09 07:19:27 51°25.389 2°49.67 352.3 13.5 347 23.3
2010-06-09 07:19:33 51°25.411 2°49.662 352.3 13.5 347 23.2
2010-06-09 07:19:38 51°25.429 2°49.655 352.2 13.5 346 23.4
2010-06-09 07:19:43 51°25.447 2°49.648 352 13.5 346 23.5
2010-06-09 07:19:48 51°25.466 2°49.641 351.9 13.5 346 23.4
2010-06-09 07:19:53 51°25.484 2°49.634 351.9 13.5 347 23.8
2010-06-09 07:19:58 51°25.502 2°49.627 352.1 13.5 347 23.8
2010-06-09 07:20:03 51°25.52 2°49.62 352.1 13.5 347 23.5
2010-06-09 07:20:07 51°25.535 2°49.615 352.3 13.4 347 23.7
2010-06-09 07:20:13 51°25.557 2°49.607 352.4 13.5 347 23.7
2010-06-09 07:20:18 51°25.575 2°49.6 352.5 13.5 346 23.5
2010-06-09 07:20:23 51°25.593 2°49.594 352.3 13.5 348 23.6
2010-06-09 07:20:28 51°25.612 2°49.587 352.8 13.6 347 24
2010-06-09 07:20:33 51°25.63 2°49.58 352.6 13.5 347 23.7
2010-06-09 07:20:38 51°25.648 2°49.573 352.3 13.5 346 23.6
2010-06-09 07:20:43 51°25.667 2°49.566 352.2 13.6 347 23.7
2010-06-09 07:20:48 51°25.685 2°49.56 352.2 13.6 347 23.7
2010-06-09 07:20:53 51°25.703 2°49.553 352.2 13.6 347 23.8
2010-06-09 07:20:58 51°25.722 2°49.546 352.4 13.6 347 23.8
2010-06-09 07:21:03 51°25.74 2°49.54 352.5 13.6 348 23.9
2010-06-09 07:21:07 51°25.755 2°49.535 352.7 13.6 347 23.7
2010-06-09 07:21:13 51°25.777 2°49.527 352.4 13.5 347 23.9
2010-06-09 07:21:18 51°25.795 2°49.52 352.4 13.6 347 23.9
2010-06-09 07:21:23 51°25.814 2°49.513 352.2 13.6 347 23.7
2010-06-09 07:21:28 51°25.832 2°49.506 352.1 13.6 347 23.7
2010-06-09 07:21:33 51°25.851 2°49.5 352.1 13.6 347 23.9
2010-06-09 07:21:38 51°25.869 2°49.493 352.6 13.6 348 23.9
2010-06-09 07:21:43 51°25.888 2°49.487 352.7 13.6 347 24
2010-06-09 07:21:48 51°25.906 2°49.48 352.8 13.6 348 23.8
2010-06-09 07:21:53 51°25.924 2°49.473 352.4 13.6 347 23.9
2010-06-09 07:21:58 51°25.943 2°49.467 352.3 13.6 347 23.9
2010-06-09 07:22:03 51°25.961 2°49.46 352.3 13.6 347 24.2
2010-06-09 07:22:07 51°25.976 2°49.455 352.2 13.6 347 24.1
2010-06-09 07:22:13 51°25.998 2°49.447 352.2 13.6 347 23.9
2010-06-09 07:22:18 51°26.016 2°49.44 352 13.6 347 24
2010-06-09 07:22:23 51°26.034 2°49.433 352.1 13.6 347 24.1
2010-06-09 07:22:28 51°26.053 2°49.427 351.9 13.6 347 24
2010-06-09 07:22:33 51°26.071 2°49.42 352 13.6 347 24.1
2010-06-09 07:22:38 51°26.09 2°49.413 352.1 13.6 347 24.3
2010-06-09 07:22:43 51°26.108 2°49.406 351.9 13.6 346 24.2
2010-06-09 07:22:48 51°26.127 2°49.399 351.5 13.6 347 24.3
2010-06-09 07:22:53 51°26.145 2°49.392 351.5 13.6 346 24.1
2010-06-09 07:22:58 51°26.163 2°49.385 351.4 13.6 347 24.2
2010-06-09 07:23:03 51°26.182 2°49.378 351.6 13.6 346 24
2010-06-09 07:23:07 51°26.196 2°49.373 351.7 13.6 348 23.8
2010-06-09 07:23:13 51°26.218 2°49.365 351.9 13.6 347 23.7
2010-06-09 07:23:18 51°26.237 2°49.358 351.9 13.6 347 23.9
2010-06-09 07:23:23 51°26.255 2°49.352 352 13.6 347 23.9
2010-06-09 07:23:27 51°26.27 2°49.347 352.3 13.6 348 24.1
2010-06-09 07:23:34 51°26.295 2°49.338 352.5 13.6 348 23.7
2010-06-09 07:23:38 51°26.31 2°49.333 352.5 13.6 348 24.1
2010-06-09 07:23:43 51°26.329 2°49.326 352.6 13.6 348 23.8
2010-06-09 07:23:47 51°26.343 2°49.321 352.6 13.6 348 22.5
2010-06-09 07:23:53 51°26.366 2°49.313 352.6 13.6 348 24.5
2010-06-09 07:23:58 51°26.384 2°49.307 352.5 13.5 348 24
2010-06-09 07:24:03 51°26.402 2°49.302 352.9 13.4 350 24.6
2010-06-09 07:24:08 51°26.421 2°49.296 353.1 13.4 348 24.1
2010-06-09 07:24:13 51°26.439 2°49.29 352.8 13.3 349 23.3
2010-06-09 07:24:18 51°26.457 2°49.284 352.8 13.4 347 22.8
2010-06-09 07:24:23 51°26.475 2°49.277 352.1 13.4 348 22.7
2010-06-09 07:24:28 51°26.493 2°49.271 352.1 13.4 347 20
2010-06-09 07:24:33 51°26.511 2°49.265 351.9 13.3 348 23.2
2010-06-09 07:24:38 51°26.529 2°49.258 352 13.4 347 23.4
2010-06-09 07:24:43 51°26.547 2°49.252 351.7 13.3 347 22.4
2010-06-09 07:24:48 51°26.565 2°49.245 352.2 13.3 347 20.4
2010-06-09 07:24:53 51°26.583 2°49.239 351.8 13.2 347 22.2
2010-06-09 07:24:58 51°26.601 2°49.232 352.3 13.3 347 22.7
2010-06-09 07:25:03 51°26.619 2°49.225 351.9 13.3 347 21.2
2010-06-09 07:25:08 51°26.637 2°49.219 352.2 13.2 347 20.7
2010-06-09 07:25:13 51°26.654 2°49.213 351.9 13.3 347 21.6
2010-06-09 07:25:18 51°26.672 2°49.206 352.1 13.2 347 20.6
2010-06-09 07:25:23 51°26.69 2°49.199 352.1 13.2 347 21.4
2010-06-09 07:25:28 51°26.708 2°49.192 351.9 13.3 347 21.8
2010-06-09 07:25:33 51°26.726 2°49.186 352.1 13.2 347 22.2
2010-06-09 07:25:38 51°26.744 2°49.179 352.4 13.3 347 22.3
2010-06-09 07:25:43 51°26.762 2°49.173 352.4 13.3 347 22.5
2010-06-09 07:25:48 51°26.78 2°49.167 352.4 13.3 348 22.6
2010-06-09 07:25:53 51°26.798 2°49.16 352.3 13.3 347 23.2
2010-06-09 07:25:58 51°26.815 2°49.153 352 13.3 347 23.1
2010-06-09 07:26:03 51°26.833 2°49.147 352.2 13.3 347 23.4
2010-06-09 07:26:08 51°26.851 2°49.14 352.1 13.3 346 23.3
2010-06-09 07:26:13 51°26.869 2°49.133 352.1 13.4 346 23.4
2010-06-09 07:26:18 51°26.887 2°49.126 351.8 13.3 347 23.3
2010-06-09 07:26:23 51°26.905 2°49.12 352.1 13.3 348 23.8
2010-06-09 07:26:28 51°26.923 2°49.113 352.2 13.3 346 24.1
2010-06-09 07:26:33 51°26.941 2°49.107 352.3 13.3 348 23.9
2010-06-09 07:26:38 51°26.959 2°49.1 352.7 13.3 347 23.8
2010-06-09 07:26:43 51°26.977 2°49.094 352.5 13.3 348 24.2
2010-06-09 07:26:48 51°26.995 2°49.086 352.4 13.4 346 23.9
2010-06-09 07:26:53 51°27.013 2°49.08 352.2 13.3 347 23.8
2010-06-09 07:26:58 51°27.031 2°49.073 352.3 13.3 347 23.9
2010-06-09 07:27:03 51°27.049 2°49.067 352.7 13.3 348 24.3
2010-06-09 07:27:08 51°27.067 2°49.06 352.7 13.4 346 24.4
2010-06-09 07:27:13 51°27.085 2°49.054 352.4 13.4 348 24.4
2010-06-09 07:27:18 51°27.104 2°49.047 352.6 13.4 347 24.8
2010-06-09 07:27:23 51°27.122 2°49.041 352.9 13.4 348 24.6
2010-06-09 07:27:28 51°27.14 2°49.034 352.9 13.4 347 25
2010-06-09 07:27:33 51°27.158 2°49.028 352.8 13.4 348 25.1
2010-06-09 07:27:38 51°27.176 2°49.021 352.7 13.4 347 25.3
2010-06-09 07:27:43 51°27.194 2°49.015 352.3 13.4 347 25.5
2010-06-09 07:27:48 51°27.212 2°49.008 352.6 13.4 348 25.4
2010-06-09 07:27:53 51°27.23 2°49.002 352.6 13.4 347 25.5
2010-06-09 07:27:58 51°27.248 2°48.995 352.7 13.4 348 25.5
2010-06-09 07:28:03 51°27.267 2°48.988 352.7 13.4 347 25.5
2010-06-09 07:28:08 51°27.285 2°48.982 352.4 13.4 347 25.4
2010-06-09 07:28:13 51°27.303 2°48.975 352.4 13.4 347 25.5
2010-06-09 07:28:18 51°27.321 2°48.968 352.2 13.4 347 25.5
2010-06-09 07:28:23 51°27.339 2°48.961 352.2 13.4 347 25.9
2010-06-09 07:28:28 51°27.357 2°48.954 352.1 13.4 346 26.3
2010-06-09 07:28:33 51°27.376 2°48.947 352 13.4 346 26.7
2010-06-09 07:28:38 51°27.394 2°48.94 352.1 13.3 347 26.3
2010-06-09 07:28:43 51°27.412 2°48.933 352 13.4 346 26.3
2010-06-09 07:28:47 51°27.427 2°48.928 352.1 13.4 347 26.5
2010-06-09 07:28:53 51°27.448 2°48.92 352.1 13.3 347 26.6
2010-06-09 07:28:58 51°27.466 2°48.913 352.1 13.3 347 26.2
2010-06-09 07:29:03 51°27.484 2°48.906 351.7 13.3 346 26.4
2010-06-09 07:29:08 51°27.502 2°48.899 352 13.4 347 26.2
2010-06-09 07:29:13 51°27.52 2°48.892 352.1 13.4 347 25.9
2010-06-09 07:29:18 51°27.539 2°48.885 352.1 13.4 347 26.1
2010-06-09 07:29:23 51°27.557 2°48.879 352 13.4 347 25.4
2010-06-09 07:29:28 51°27.575 2°48.872 352 13.4 347 25.6
2010-06-09 07:29:33 51°27.593 2°48.865 352.1 13.4 347 25.6
2010-06-09 07:29:38 51°27.611 2°48.859 352.2 13.4 347 25.5
2010-06-09 07:29:43 51°27.629 2°48.853 352.4 13.4 348 26.1
2010-06-09 07:29:48 51°27.647 2°48.846 352.5 13.5 347 26.3
2010-06-09 07:29:53 51°27.666 2°48.839 352.3 13.5 347 26.4
2010-06-09 07:29:58 51°27.684 2°48.833 352.2 13.4 348 26.3
2010-06-09 07:30:03 51°27.702 2°48.826 352.4 13.4 347 25.8
2010-06-09 07:30:08 51°27.72 2°48.819 352.2 13.5 347 26
2010-06-09 07:30:13 51°27.738 2°48.812 352.1 13.4 347 25.7
2010-06-09 07:30:18 51°27.757 2°48.806 351.8 13.5 347 26.6
2010-06-09 07:30:23 51°27.775 2°48.799 352 13.5 347 27.2
2010-06-09 07:30:27 51°27.789 2°48.794 352 13.4 347 27.4
2010-06-09 07:30:33 51°27.81 2°48.786 352.1 13.5 347 27.3
2010-06-09 07:30:38 51°27.829 2°48.779 352.1 13.5 347 27
2010-06-09 07:30:43 51°27.847 2°48.773 352 13.5 347 26.2
2010-06-09 07:30:48 51°27.865 2°48.766 352 13.5 347 26.7
2010-06-09 07:30:53 51°27.884 2°48.759 352.3 13.5 348 27.3
2010-06-09 07:30:58 51°27.902 2°48.753 352.2 13.5 348 29
2010-06-09 07:31:03 51°27.92 2°48.746 352.2 13.5 347 29.3
2010-06-09 07:31:07 51°27.935 2°48.741 352 13.5 348 29.4
2010-06-09 07:31:13 51°27.957 2°48.733 351.8 13.6 347 28.7
2010-06-09 07:31:18 51°27.976 2°48.726 352 13.5 348 28.6
2010-06-09 07:31:23 51°27.994 2°48.719 352.4 13.5 347 28.4
2010-06-09 07:31:28 51°28.013 2°48.712 352.2 13.5 348 28
2010-06-09 07:31:33 51°28.031 2°48.705 352.4 13.5 347 27.6
2010-06-09 07:31:38 51°28.05 2°48.699 352.1 13.5 348 27.5
2010-06-09 07:31:43 51°28.068 2°48.692 352.2 13.6 347 27.2
2010-06-09 07:31:48 51°28.086 2°48.686 352.1 13.5 347 26.5
2010-06-09 07:31:53 51°28.104 2°48.68 352.4 13.5 347 26.7
2010-06-09 07:31:58 51°28.122 2°48.673 352.2 13.6 347 26.9
2010-06-09 07:32:03 51°28.14 2°48.667 352.3 13.6 347 26.6
2010-06-09 07:32:07 51°28.155 2°48.662 352.4 13.6 348 26.7
2010-06-09 07:32:13 51°28.178 2°48.654 352.7 13.6 348 26.4
2010-06-09 07:32:18 51°28.196 2°48.648 352.8 13.5 348 26
2010-06-09 07:32:23 51°28.214 2°48.642 352.7 13.5 348 26.4
2010-06-09 07:32:28 51°28.233 2°48.635 352.6 13.5 348 26.5
2010-06-09 07:32:33 51°28.251 2°48.629 352.8 13.5 348 26.4
2010-06-09 07:32:38 51°28.269 2°48.622 352.4 13.6 347 26.3
2010-06-09 07:32:43 51°28.288 2°48.616 352.4 13.6 349 25.8
2010-06-09 07:32:47 51°28.302 2°48.611 352.5 13.6 347 26.1
2010-06-09 07:32:53 51°28.324 2°48.604 352.5 13.5 348 26.4
2010-06-09 07:32:58 51°28.343 2°48.597 352.4 13.6 348 26.6
2010-06-09 07:33:03 51°28.361 2°48.591 352.2 13.6 348 26.7
2010-06-09 07:33:08 51°28.38 2°48.585 352.4 13.6 348 27.6
2010-06-09 07:33:13 51°28.398 2°48.578 352.3 13.6 348 28.6
2010-06-09 07:33:18 51°28.417 2°48.572 352.2 13.6 348 28.7
2010-06-09 07:33:23 51°28.435 2°48.566 352.6 13.6 348 29
2010-06-09 07:33:28 51°28.454 2°48.559 352.3 13.5 348 29.3
2010-06-09 07:33:33 51°28.473 2°48.553 352.3 13.6 348 29.1
2010-06-09 07:33:38 51°28.491 2°48.546 352.4 13.6 348 28.4
2010-06-09 07:33:43 51°28.51 2°48.54 352.2 13.6 348 28.6
2010-06-09 07:33:48 51°28.528 2°48.534 352.2 13.6 347 29.9
2010-06-09 07:33:53 51°28.546 2°48.528 351.9 13.6 348 31.3
2010-06-09 07:33:58 51°28.565 2°48.522 352.2 13.6 348 32.3
2010-06-09 07:34:03 51°28.583 2°48.515 352.3 13.6 348 32.8
2010-06-09 07:34:08 51°28.602 2°48.509 352.4 13.7 348 33.3
2010-06-09 07:34:13 51°28.62 2°48.503 352.2 13.7 348 33.8
2010-06-09 07:34:18 51°28.639 2°48.497 352.1 13.7 348 33.9
2010-06-09 07:34:23 51°28.658 2°48.49 352 13.8 348 32.9
2010-06-09 07:34:27 51°28.673 2°48.485 352 13.7 347 32.3
2010-06-09 07:34:33 51°28.695 2°48.478 352.4 13.8 349 31.5
2010-06-09 07:34:38 51°28.714 2°48.471 352.3 13.8 348 30.3
2010-06-09 07:34:43 51°28.733 2°48.465 352.4 13.8 349 30
2010-06-09 07:34:48 51°28.752 2°48.459 352.6 13.8 348 29.6
2010-06-09 07:34:53 51°28.77 2°48.453 352.4 13.8 349 29.8
2010-06-09 07:34:58 51°28.789 2°48.447 352.2 13.8 348 29.9
2010-06-09 07:35:03 51°28.808 2°48.441 352.2 13.8 349 29.7
2010-06-09 07:35:07 51°28.823 2°48.436 352.1 13.8 348 29.7
2010-06-09 07:35:13 51°28.845 2°48.429 352.2 13.7 349 29.5
2010-06-09 07:35:18 51°28.864 2°48.422 352.3 13.7 348 29.7
2010-06-09 07:35:23 51°28.883 2°48.416 352.2 13.7 349 29.8